PBO Station Position Time Series. Reference Frame : NAM14
Format Version,1.1.0
4-character ID,LOZ1
Station name,LakeOzoniaNY2005
Begin Date, 2005-10-07
End Date, 2013-08-15
Release Date, 2019-08-30
Reference position, 44.6197077452 North Latitude, -74.5829327736 East Longitude, 443.96090 meters elevation,
Date, North (mm), East (mm), Vertical (mm), North Std. Deviation (mm), East Std. Deviation (mm),              Vertical Std. Deviation (mm), Quality,
2005-10-07,0.00, 0.00, -23.80, 6.07, 3.81, 30.69, repro,
2005-10-08,-3.96, -6.72, 4.09, 6.77, 4.43, 31.73, repro,
2005-10-09,-7.16, -9.39, 34.91, 7.31, 5.12, 37.00, repro,
2005-10-10,-8.48, -10.91, 44.70, 7.06, 5.23, 36.76, repro,
2005-10-11,-9.78, -12.41, 5.61, 7.88, 5.13, 39.36, repro,
2005-10-12,-13.41, -8.47, 33.22, 7.50, 5.10, 37.74, repro,
2005-10-13,-1.20, -9.06, -15.45, 7.65, 5.21, 38.70, repro,
2005-10-14,-5.58, -10.16, -0.06, 7.31, 5.00, 37.36, repro,
2005-10-15,-8.25, -6.31, 51.96, 7.87, 5.42, 40.70, repro,
2005-10-16,-1.19, -9.43, 15.83, 9.76, 5.63, 49.11, repro,
2005-10-17,-4.57, -9.09, 0.92, 8.66, 5.52, 42.52, repro,
2005-10-18,-10.84, -14.01, 37.20, 8.53, 5.68, 43.59, repro,
2005-10-19,-7.16, -13.21, 39.89, 8.22, 5.56, 41.02, repro,
2005-10-20,-4.30, -13.86, 7.08, 8.36, 5.27, 39.97, repro,
2005-10-21,-17.30, -13.34, 90.21, 7.39, 5.01, 37.56, repro,
2005-10-22,-7.17, -13.26, 49.89, 7.72, 5.72, 41.09, repro,
2005-10-23,-10.70, -11.61, -6.69, 8.43, 5.68, 43.65, repro,
2005-10-24,-15.38, -13.84, 54.28, 7.83, 5.41, 38.20, repro,
2005-10-25,7.35, -2.33, -27.95, 9.32, 6.03, 49.58, repro,
2005-10-26,-7.14, 2.28, -29.16, 10.85, 6.03, 55.48, repro,
2005-10-27,-4.85, -11.58, -27.27, 9.38, 5.87, 49.14, repro,
2005-10-28,-8.69, -6.74, 49.83, 9.76, 5.85, 50.96, repro,
2005-10-29,-10.41, -14.49, 45.19, 6.97, 5.20, 35.83, repro,
2005-10-30,-4.76, -6.03, -14.07, 6.97, 4.93, 36.21, repro,
2005-10-31,-5.54, -7.01, 2.65, 7.93, 5.60, 41.06, repro,
2005-11-01,11.06, -16.59, -26.89, 7.87, 5.39, 40.78, repro,
2005-11-02,-6.23, -9.60, 2.56, 8.97, 6.25, 47.94, repro,
2005-11-03,3.35, -15.96, -10.78, 8.60, 5.82, 44.18, repro,
2005-11-04,-12.41, -10.56, 55.41, 7.53, 5.37, 39.46, repro,
2005-11-05,-0.40, -7.20, 28.56, 7.05, 5.26, 36.47, repro,
2005-11-06,9.14, -6.54, -61.53, 9.31, 6.02, 47.38, repro,
2005-11-07,-5.02, -12.32, 0.53, 8.66, 5.91, 44.86, repro,
2005-11-08,-16.84, -17.03, 31.38, 10.39, 6.61, 55.25, repro,
2005-11-09,-0.77, -11.77, -6.00, 6.97, 5.22, 35.10, repro,
2005-11-10,-2.77, -8.08, 0.67, 8.63, 6.05, 44.48, repro,
2005-11-11,14.77, -3.26, -90.36, 6.97, 4.90, 35.76, repro,
2005-11-12,-5.88, -9.28, 11.76, 6.55, 4.62, 32.94, repro,
2005-11-13,7.24, -16.19, -56.03, 8.43, 5.56, 43.01, repro,
2005-11-14,-11.90, -10.97, 65.30, 8.54, 5.88, 45.08, repro,
2005-11-15,-3.13, -9.29, 28.20, 8.10, 5.40, 42.35, repro,
2005-11-16,4.29, -9.57, -26.00, 9.53, 6.25, 48.82, repro,
2005-11-17,-3.94, -14.00, 15.24, 9.39, 5.62, 46.44, repro,
2005-11-18,-8.33, -13.68, 4.16, 6.84, 5.05, 35.01, repro,
2005-11-19,-4.71, -7.84, 34.79, 6.45, 4.38, 30.79, repro,
2005-11-20,-10.04, -13.29, 40.02, 8.54, 5.54, 42.86, repro,
2005-11-21,-5.61, -12.97, 33.95, 10.18, 5.95, 49.77, repro,
2005-11-22,1.55, -9.43, -32.33, 7.95, 5.67, 41.90, repro,
2005-11-23,-8.20, -12.59, -6.95, 6.16, 4.46, 29.22, repro,
2005-11-24,-15.14, -11.57, 43.59, 6.75, 4.84, 33.35, repro,
2005-11-25,-6.57, -9.54, -30.25, 6.39, 4.56, 32.12, repro,
2005-11-26,-10.83, -12.37, -16.30, 6.86, 4.84, 35.41, repro,
2005-11-27,-4.72, -7.32, -9.56, 6.57, 4.55, 33.31, repro,
2005-11-28,3.77, -11.23, -42.17, 8.47, 5.49, 44.13, repro,
2005-11-29,2.15, -7.79, 54.52, 8.70, 5.49, 44.13, repro,
2005-11-30,-2.52, -15.01, -14.64, 8.83, 5.66, 44.20, repro,
2005-12-01,0.67, -7.69, -14.05, 7.73, 5.20, 38.48, repro,
2005-12-02,-1.21, -0.97, -29.03, 6.88, 4.79, 34.41, repro,
2005-12-03,-8.39, -9.61, -18.76, 6.25, 4.45, 30.34, repro,
2005-12-04,-17.77, -12.69, 37.78, 5.79, 4.19, 30.05, repro,
2005-12-05,-7.62, -6.22, -38.19, 6.55, 4.67, 32.97, repro,
2005-12-06,-14.03, -12.67, 34.45, 6.21, 4.26, 30.22, repro,
2005-12-07,-2.11, -11.33, -4.70, 5.73, 4.00, 28.45, repro,
2005-12-08,-4.40, -10.57, -22.76, 5.57, 4.04, 28.34, repro,
2005-12-09,-9.22, -12.72, 12.77, 5.75, 4.21, 28.23, repro,
2005-12-10,-4.73, -7.84, -2.88, 6.15, 4.36, 31.88, repro,
2005-12-11,-0.72, -9.99, -2.67, 6.23, 4.31, 31.41, repro,
2005-12-12,0.12, -7.45, -1.14, 5.68, 3.88, 28.33, repro,
2005-12-13,5.09, -9.06, -58.12, 5.85, 4.24, 29.56, repro,
2005-12-14,-3.01, -12.64, -8.10, 5.57, 3.90, 26.08, repro,
2005-12-15,-0.12, -8.75, -10.50, 6.02, 4.36, 29.81, repro,
2005-12-16,-6.00, -9.92, -25.11, 6.58, 4.98, 34.06, repro,
2005-12-17,4.01, -7.89, -120.51, 9.13, 6.16, 43.81, repro,
2005-12-18,4.17, -2.89, -119.89, 9.30, 6.24, 47.83, repro,
2005-12-19,11.32, -0.49, -149.05, 8.57, 5.49, 42.72, repro,
2005-12-20,1.96, -4.69, -99.16, 7.93, 5.30, 38.50, repro,
2005-12-21,5.57, -5.49, -118.17, 7.23, 5.31, 38.06, repro,
2005-12-22,6.72, -5.68, -139.73, 6.90, 5.12, 36.09, repro,
2005-12-23,12.13, -2.33, -194.67, 9.26, 6.56, 49.57, repro,
2005-12-24,13.68, -4.42, -141.54, 10.25, 6.44, 50.12, repro,
2005-12-25,4.93, -4.53, -16.88, 7.89, 5.21, 38.41, repro,
2005-12-26,-7.86, -7.49, -1.41, 7.43, 4.75, 35.63, repro,
2005-12-27,-11.66, -12.61, 4.39, 6.22, 4.72, 31.48, repro,
2005-12-28,-4.46, -6.79, 12.79, 6.09, 4.33, 29.80, repro,
2005-12-29,4.69, -2.91, -15.07, 8.08, 5.15, 39.43, repro,
2005-12-30,-3.53, -9.34, 24.88, 5.87, 4.28, 28.31, repro,
2005-12-31,8.48, -5.91, -63.51, 6.28, 4.17, 30.21, repro,
2006-01-01,-5.06, -10.47, -12.52, 6.11, 4.04, 29.14, repro,
2006-01-02,-8.43, -8.07, 30.43, 6.33, 4.44, 30.80, repro,
2006-01-03,-7.22, -7.80, 57.01, 6.28, 4.17, 30.89, repro,
2006-01-04,13.87, -4.22, -42.41, 6.58, 4.77, 32.32, repro,
2006-01-05,2.47, -5.92, -7.42, 6.96, 4.62, 34.51, repro,
2006-01-06,-4.40, -11.79, -7.22, 5.86, 4.29, 28.79, repro,
2006-01-07,6.02, -9.97, -28.93, 5.64, 4.10, 26.88, repro,
2006-01-08,-8.37, -7.47, 19.19, 6.05, 4.10, 29.72, repro,
2006-01-09,0.26, -2.60, -41.87, 7.23, 5.11, 36.06, repro,
2006-01-10,9.23, 2.58, -70.27, 7.29, 4.81, 33.88, repro,
2006-01-11,-6.83, -16.19, 30.77, 7.29, 5.00, 35.63, repro,
2006-01-12,-5.79, -7.77, 9.84, 9.39, 5.89, 45.62, repro,
2006-01-13,0.20, -6.45, -20.43, 7.28, 4.80, 36.37, repro,
2006-01-14,-16.87, -10.68, 58.00, 6.89, 4.65, 33.43, repro,
2006-01-15,0.19, -1.82, -8.38, 5.67, 3.88, 26.54, repro,
2006-01-16,0.63, -13.37, -20.12, 5.80, 3.97, 28.27, repro,
2006-01-17,-9.99, -12.94, -4.14, 6.53, 4.43, 30.71, repro,
2006-01-18,-1.06, -14.02, 3.65, 7.27, 5.10, 35.97, repro,
2006-01-19,-7.43, -10.68, 53.65, 7.15, 5.00, 36.14, repro,
2006-01-20,7.89, -3.54, -19.56, 8.01, 5.12, 38.05, repro,
2006-01-21,6.79, -5.76, -74.99, 7.74, 4.61, 37.17, repro,
2006-01-22,0.96, -7.25, -30.52, 5.77, 4.16, 28.13, repro,
2006-01-23,-1.18, -14.20, -0.88, 6.66, 4.62, 32.12, repro,
2006-01-24,-7.11, -12.31, 40.95, 7.08, 4.66, 34.03, repro,
2006-01-25,3.33, -9.20, -23.06, 7.30, 4.74, 37.75, repro,
2006-01-26,9.29, -8.61, -76.40, 5.53, 4.13, 28.55, repro,
2006-01-27,4.25, -5.86, -43.07, 5.80, 3.93, 28.69, repro,
2006-01-28,-5.04, -12.63, 13.62, 6.66, 4.75, 34.18, repro,
2006-01-29,-10.64, -13.43, 35.24, 7.84, 5.03, 39.54, repro,
2006-01-30,-2.50, -2.23, -22.48, 8.35, 5.05, 41.19, repro,
2006-01-31,-12.85, -9.60, 20.24, 7.33, 4.74, 36.66, repro,
2006-02-01,11.54, -3.93, -54.73, 6.29, 4.51, 32.09, repro,
2006-02-02,6.42, -8.90, -59.43, 7.09, 4.71, 36.36, repro,
2006-02-03,-9.04, -13.91, 41.17, 7.99, 5.54, 41.02, repro,
2006-02-04,2.26, -12.48, 22.38, 8.50, 5.64, 42.90, repro,
2006-02-05,7.03, -4.57, -30.05, 8.62, 5.34, 42.11, repro,
2006-02-06,2.16, -8.76, -21.17, 6.02, 4.39, 30.17, repro,
2006-02-07,10.57, -2.44, -89.39, 5.99, 4.17, 29.76, repro,
2006-02-08,-0.55, -9.67, -25.89, 6.20, 4.44, 33.03, repro,
2006-02-09,-4.02, -10.42, -15.57, 5.52, 3.98, 28.06, repro,
2006-02-10,-4.18, -6.28, -19.77, 5.79, 4.08, 27.81, repro,
2006-02-11,-6.77, -9.77, 20.89, 5.68, 4.02, 27.96, repro,
2006-02-12,-2.23, -11.21, 29.11, 5.34, 3.84, 26.98, repro,
2006-02-13,0.37, -10.17, 8.04, 5.78, 4.08, 29.77, repro,
2006-02-14,-7.63, -8.65, 42.04, 6.47, 4.33, 32.35, repro,
2006-02-15,2.52, -4.60, -7.88, 7.53, 5.20, 40.09, repro,
2006-02-16,-0.03, -6.37, -17.17, 7.14, 4.50, 35.45, repro,
2006-02-17,6.22, -3.57, -57.91, 6.74, 4.66, 34.08, repro,
2006-02-18,6.31, -4.36, -41.59, 5.76, 3.90, 29.04, repro,
2006-02-19,1.02, -5.03, -39.03, 5.89, 4.05, 30.40, repro,
2006-02-20,-3.61, -8.84, 15.20, 5.97, 4.16, 31.31, repro,
2006-02-21,4.08, -6.46, -33.96, 6.13, 4.37, 32.65, repro,
2006-02-22,-0.10, -4.59, -22.39, 6.88, 4.66, 36.79, repro,
2006-02-23,-5.37, -7.09, 18.07, 6.46, 4.36, 33.03, repro,
2006-02-24,-1.31, -10.14, 6.98, 5.65, 4.22, 30.40, repro,
2006-02-25,5.99, -8.33, -39.80, 5.57, 3.86, 28.97, repro,
2006-02-26,8.17, -1.74, -97.53, 5.73, 4.03, 29.97, repro,
2006-02-27,-1.78, -9.05, -0.70, 5.03, 3.79, 25.80, repro,
2006-02-28,-2.84, -5.85, 2.04, 5.28, 3.85, 27.80, repro,
2006-03-01,-4.56, -6.93, 7.96, 5.55, 3.92, 29.64, repro,
2006-03-02,-9.64, -5.99, 25.70, 5.44, 3.87, 28.98, repro,
2006-03-03,-1.75, -8.91, -3.31, 5.83, 4.47, 30.98, repro,
2006-03-04,3.57, -3.98, -32.22, 5.68, 3.95, 28.76, repro,
2006-03-05,-8.36, -11.61, 21.24, 5.68, 4.02, 29.22, repro,
2006-03-06,-5.92, -12.51, 20.65, 5.74, 4.29, 31.15, repro,
2006-03-07,-4.23, -7.21, -2.24, 5.74, 4.09, 30.21, repro,
2006-03-08,-0.16, -8.77, -14.92, 5.77, 4.25, 30.99, repro,
2006-03-09,-8.54, -9.72, 29.79, 7.79, 4.80, 39.73, repro,
2006-03-10,-7.42, -2.77, 39.58, 8.42, 5.15, 42.99, repro,
2006-03-11,5.41, 6.93, -6.01, 8.85, 5.27, 44.19, repro,
2006-03-12,-1.81, -3.73, -30.34, 9.15, 5.25, 44.29, repro,
2006-03-13,-1.74, -9.30, -5.66, 9.00, 5.43, 45.07, repro,
2006-03-14,-0.03, -8.77, -1.98, 7.05, 5.04, 35.76, repro,
2006-03-15,-2.84, -13.38, -0.73, 6.36, 4.43, 32.19, repro,
2006-03-16,-4.24, -4.09, -3.71, 6.49, 4.31, 32.33, repro,
2006-03-17,0.20, -3.28, -19.92, 5.93, 4.04, 29.87, repro,
2006-03-18,3.75, -4.05, -35.72, 5.57, 3.84, 27.85, repro,
2006-03-19,-2.01, -7.22, -15.97, 6.01, 4.12, 30.19, repro,
2006-03-20,-1.03, -6.48, -21.99, 5.66, 3.79, 27.19, repro,
2006-03-21,-1.00, -8.99, -12.21, 5.86, 3.71, 28.48, repro,
2006-03-22,-3.57, -4.06, 7.67, 6.12, 3.95, 29.59, repro,
2006-03-23,-2.99, -6.24, -9.62, 6.87, 4.54, 34.96, repro,
2006-03-24,3.79, 1.68, -57.53, 7.61, 4.70, 36.60, repro,
2006-03-25,-5.42, -6.12, -4.35, 8.34, 5.28, 40.42, repro,
2006-03-26,-10.17, -9.70, 34.78, 7.93, 4.94, 38.26, repro,
2006-03-27,-5.62, -6.11, 23.96, 7.73, 4.75, 36.17, repro,
2006-03-28,4.39, -1.98, -29.61, 7.17, 4.69, 36.60, repro,
2006-03-29,5.22, -7.85, -15.81, 7.59, 4.76, 37.33, repro,
2006-03-30,6.33, -9.85, -42.39, 7.66, 4.94, 37.04, repro,
2006-03-31,-7.74, -7.80, 34.73, 7.79, 4.97, 38.39, repro,
2006-04-01,29.49, 9.85, -108.06, 13.11, 7.39, 62.90, repro,
2006-04-02,-3.47, -4.13, 13.55, 7.24, 4.86, 36.97, repro,
2006-04-03,-1.64, -5.00, -3.17, 6.88, 4.70, 34.66, repro,
2006-04-04,8.98, 0.34, -78.74, 7.92, 4.92, 38.32, repro,
2006-04-05,3.95, 0.16, -23.41, 7.70, 5.06, 38.65, repro,
2006-04-06,-2.99, -5.87, -11.10, 7.45, 4.83, 37.39, repro,
2006-04-07,-6.35, -5.44, 41.32, 8.13, 4.95, 38.90, repro,
2006-04-08,-7.87, -9.11, 39.98, 6.55, 4.52, 34.06, repro,
2006-04-09,2.09, -9.84, -26.19, 6.08, 4.24, 31.38, repro,
2006-04-10,-4.42, -6.48, 16.93, 7.21, 4.74, 37.99, repro,
2006-04-11,-11.18, -11.69, 49.14, 6.96, 4.62, 35.38, repro,
2006-04-12,5.25, -6.85, -14.95, 7.53, 4.96, 37.24, repro,
2006-04-13,1.84, -0.01, -22.04, 7.78, 5.10, 39.11, repro,
2006-04-14,-4.19, -1.75, 17.02, 7.46, 4.81, 36.86, repro,
2006-04-15,6.17, -5.80, -32.36, 7.82, 4.97, 38.22, repro,
2006-04-16,-7.11, -9.02, 33.59, 7.69, 4.81, 37.20, repro,
2006-04-17,-14.59, -14.50, 69.60, 7.38, 4.67, 37.20, repro,
2006-04-18,5.64, 0.64, -11.90, 8.12, 5.10, 38.75, repro,
2006-04-19,-3.15, -4.94, 19.56, 7.51, 4.63, 37.19, repro,
2006-04-20,9.22, -6.94, -48.68, 7.67, 4.70, 37.38, repro,
2006-04-21,-0.99, -4.69, -16.34, 7.32, 4.57, 34.88, repro,
2006-04-22,-1.59, -4.29, 7.25, 8.29, 5.48, 42.65, repro,
2006-04-23,7.64, -2.69, -32.37, 7.56, 4.93, 38.24, repro,
2006-04-24,0.04, -1.79, -27.91, 8.14, 4.79, 41.32, repro,
2006-04-25,-0.67, -9.48, 13.76, 7.72, 4.94, 38.84, repro,
2006-04-26,2.29, -7.86, -3.83, 7.64, 4.90, 39.45, repro,
2006-04-27,-7.49, -8.49, 48.66, 6.76, 4.59, 35.64, repro,
2006-04-28,-0.78, -9.24, 0.49, 6.78, 4.44, 34.81, repro,
2006-04-29,-1.64, -6.83, -2.80, 7.03, 4.48, 35.02, repro,
2006-04-30,-2.15, -6.41, -2.84, 7.48, 4.56, 36.73, repro,
2006-05-01,-10.97, -11.09, 52.09, 6.65, 4.47, 34.09, repro,
2006-05-02,2.60, -7.69, 2.09, 7.24, 4.66, 36.71, repro,
2006-05-03,-9.54, -9.43, 58.28, 7.59, 4.76, 37.40, repro,
2006-05-04,-7.92, -13.36, 24.03, 7.83, 4.92, 38.31, repro,
2006-05-05,-3.77, -9.41, 37.73, 7.79, 4.91, 38.63, repro,
2006-05-06,-1.00, -6.72, -12.90, 6.98, 4.38, 35.30, repro,
2006-05-07,0.38, -4.08, -39.58, 4.95, 3.23, 23.90, repro,
2006-05-08,4.77, -1.94, -35.74, 5.17, 3.35, 24.58, repro,
2006-05-09,-0.35, -6.25, -3.86, 5.21, 3.31, 23.63, repro,
2006-05-10,-9.37, -9.51, 41.39, 4.85, 3.22, 23.11, repro,
2006-05-11,-10.30, -7.70, 60.67, 5.36, 3.81, 25.72, repro,
2006-05-12,-11.14, -3.94, 45.63, 5.53, 3.55, 27.59, repro,
2006-05-13,-8.11, -9.66, 23.54, 5.18, 3.50, 25.19, repro,
2006-05-14,-3.16, -10.78, 3.17, 5.09, 3.37, 24.73, repro,
2006-05-15,7.16, -7.00, -44.34, 5.40, 3.48, 27.42, repro,
2006-05-16,-5.61, -4.64, 7.20, 4.82, 3.65, 23.21, repro,
2006-05-17,-4.13, -6.75, 27.44, 5.88, 3.89, 28.43, repro,
2006-05-18,-6.99, -11.60, 19.56, 5.47, 3.64, 26.23, repro,
2006-05-19,-7.57, -6.66, 31.63, 5.27, 3.59, 24.60, repro,
2006-05-20,1.43, -3.33, -11.47, 7.01, 4.57, 35.92, repro,
2006-05-21,-4.60, -7.28, 28.35, 5.95, 4.14, 28.63, repro,
2006-05-22,-11.24, -5.57, 58.86, 6.14, 4.38, 30.98, repro,
2006-05-23,-16.31, -17.02, 57.22, 5.47, 3.77, 26.82, repro,
2006-05-24,-5.28, -12.25, 3.19, 5.34, 3.79, 26.82, repro,
2006-05-25,-7.40, -3.40, 10.80, 5.76, 4.17, 28.52, repro,
2006-05-26,2.50, -1.14, -25.19, 5.13, 3.86, 24.51, repro,
2006-05-27,-13.78, -9.81, 57.47, 5.43, 3.81, 26.48, repro,
2006-05-28,-5.33, -9.41, 11.84, 5.47, 3.52, 25.35, repro,
2006-05-29,-1.42, -6.97, 23.83, 5.92, 4.16, 28.96, repro,
2006-05-30,-4.83, -10.64, 16.25, 5.07, 3.55, 23.77, repro,
2006-05-31,-4.89, -5.98, 26.82, 5.99, 4.21, 28.86, repro,
2006-06-01,-3.15, -5.71, 9.17, 6.59, 4.34, 31.46, repro,
2006-06-02,-11.53, -13.29, 21.02, 7.41, 4.56, 35.24, repro,
2006-06-03,-12.22, -8.23, 74.01, 6.99, 4.47, 33.50, repro,
2006-06-04,4.74, -7.39, -8.57, 7.02, 4.33, 32.35, repro,
2006-06-05,-0.11, -0.28, -16.23, 6.13, 4.40, 29.77, repro,
2006-06-06,-0.40, 1.91, -34.90, 5.92, 3.81, 26.95, repro,
2006-06-07,-12.46, -7.05, 42.48, 5.77, 3.66, 25.86, repro,
2006-06-08,-9.24, -7.54, -31.40, 5.42, 3.80, 25.81, repro,
2006-06-09,-15.60, -3.54, 34.97, 6.41, 4.04, 30.50, repro,
2006-06-10,17.30, -10.97, -60.43, 10.28, 5.34, 47.37, repro,
2006-06-11,3.37, -14.98, -3.81, 8.80, 5.12, 40.28, repro,
2006-06-12,-2.71, -3.32, -3.75, 7.27, 4.40, 34.35, repro,
2006-06-13,-6.57, -10.13, 38.58, 5.92, 4.14, 26.10, repro,
2006-06-14,-9.53, -5.14, -10.62, 6.60, 4.42, 31.76, repro,
2006-06-15,1.61, -8.66, -32.00, 6.01, 3.94, 27.30, repro,
2006-06-16,1.65, -8.80, -24.68, 5.85, 3.99, 28.13, repro,
2006-06-17,-13.30, -10.35, 40.60, 6.84, 4.15, 32.58, repro,
2006-06-18,1.95, -12.16, -36.49, 7.94, 4.84, 37.55, repro,
2006-06-19,9.85, -7.68, -45.46, 7.73, 4.47, 33.45, repro,
2006-06-20,-4.86, -2.25, -7.39, 7.22, 4.86, 35.46, repro,
2006-06-21,-1.53, -5.75, 5.09, 6.40, 3.75, 27.47, repro,
2006-06-22,-11.55, -19.29, 42.11, 7.91, 4.45, 35.32, repro,
2006-06-23,-20.22, -14.81, 67.94, 5.79, 3.95, 25.35, repro,
2006-06-24,-3.14, -2.71, -5.34, 6.15, 3.87, 27.03, repro,
2006-06-25,4.49, -6.00, -20.16, 6.45, 3.78, 27.85, repro,
2006-06-26,-8.97, -6.61, 19.59, 5.90, 4.15, 28.63, repro,
2006-06-27,6.63, -9.26, -40.09, 7.57, 4.79, 35.86, repro,
2006-06-28,-14.70, -18.50, 80.50, 7.67, 4.41, 33.26, repro,
2006-06-29,-17.25, -18.44, 88.59, 7.22, 4.38, 33.59, repro,
2006-06-30,-22.97, -12.95, 59.57, 6.92, 4.17, 33.24, repro,
2006-07-01,-8.85, -6.97, 3.53, 6.58, 4.34, 34.25, repro,
2006-07-02,-13.26, -11.23, 46.76, 7.77, 4.83, 39.46, repro,
2006-07-03,-5.27, -6.01, 21.45, 6.06, 3.96, 29.46, repro,
2006-07-04,-1.85, -14.51, 25.40, 7.14, 4.40, 36.13, repro,
2006-07-05,-6.44, -10.68, -9.95, 7.24, 4.37, 37.31, repro,
2006-07-06,-8.17, -2.77, 3.24, 5.28, 3.31, 25.32, repro,
2006-07-07,2.92, -3.56, -34.75, 6.15, 3.83, 28.98, repro,
2006-07-08,-9.42, -13.13, 28.91, 6.08, 3.75, 29.16, repro,
2006-07-09,-16.13, -10.83, 71.32, 6.90, 4.19, 34.46, repro,
2006-07-10,-15.84, -17.78, 64.98, 6.57, 4.02, 32.58, repro,
2006-07-11,-18.73, -10.11, 75.22, 6.42, 4.37, 32.64, repro,
2006-07-12,-13.92, -5.92, 25.08, 5.71, 3.80, 28.24, repro,
2006-07-13,5.59, -6.09, -23.48, 7.07, 4.24, 34.37, repro,
2006-07-14,-14.18, -9.76, 87.96, 6.90, 4.09, 33.01, repro,
2006-07-15,-2.47, -5.00, 23.45, 6.89, 4.01, 33.39, repro,
2006-07-16,-4.88, -8.75, 17.71, 6.41, 4.40, 33.21, repro,
2006-07-17,-9.51, 3.23, 38.40, 7.22, 4.37, 35.64, repro,
2006-07-18,-3.46, -13.76, -4.90, 6.40, 4.02, 32.65, repro,
2006-07-19,4.35, -7.68, -25.49, 6.15, 3.81, 29.47, repro,
2006-07-20,-3.67, -5.57, 14.05, 6.25, 4.16, 30.72, repro,
2006-07-21,-12.31, -14.00, 35.40, 7.24, 4.42, 35.62, repro,
2006-07-22,-2.54, -10.83, -26.53, 5.77, 3.50, 27.01, repro,
2006-07-23,-13.12, -8.12, 52.27, 7.10, 4.18, 35.31, repro,
2006-07-24,-16.60, -12.54, 74.73, 6.07, 3.71, 29.73, repro,
2006-07-25,-12.64, -13.54, 36.45, 7.32, 4.18, 36.09, repro,
2006-07-26,-10.06, -13.15, 9.24, 6.87, 4.23, 34.00, repro,
2006-07-27,-0.95, -8.69, -29.40, 7.45, 4.31, 36.21, repro,
2006-07-28,-7.66, -3.11, 42.61, 6.24, 3.88, 30.04, repro,
2006-07-29,-5.00, -11.56, 29.17, 6.85, 4.31, 33.70, repro,
2006-07-30,-12.70, -12.74, 60.17, 6.52, 3.95, 32.08, repro,
2006-07-31,-8.70, -5.43, 28.20, 6.43, 3.66, 30.39, repro,
2006-08-01,-9.21, -16.67, 34.98, 8.38, 4.69, 42.05, repro,
2006-08-02,-5.79, -6.97, 10.96, 7.39, 4.24, 35.03, repro,
2006-08-03,-10.22, -8.87, 16.29, 7.19, 4.32, 34.13, repro,
2006-08-04,-7.71, -8.12, 51.76, 7.05, 4.16, 31.85, repro,
2006-08-05,-7.37, -11.10, 15.01, 6.89, 4.19, 32.43, repro,
2006-08-06,2.12, -3.74, -31.44, 6.09, 3.91, 29.47, repro,
2006-08-07,-7.60, -8.33, 33.61, 8.33, 5.18, 42.05, repro,
2006-08-08,-7.75, -9.95, 34.64, 6.14, 3.71, 29.22, repro,
2006-08-09,-11.71, -4.73, 45.05, 5.99, 3.45, 28.00, repro,
2006-08-10,-10.99, -12.90, -2.13, 5.91, 4.20, 28.69, repro,
2006-08-11,-12.24, -4.94, 22.04, 6.13, 4.34, 30.94, repro,
2006-08-12,-1.90, -3.09, -11.06, 5.80, 3.91, 27.78, repro,
2006-08-13,-10.38, -16.73, 18.34, 6.24, 3.78, 29.58, repro,
2006-08-14,-3.22, -9.61, 12.49, 6.79, 4.03, 31.64, repro,
2006-08-15,-10.42, -17.50, 33.72, 7.35, 4.74, 37.55, repro,
2006-08-16,-10.36, -7.35, 35.28, 6.31, 3.91, 29.84, repro,
2006-08-17,-7.74, -10.00, 10.82, 5.23, 3.50, 24.41, repro,
2006-08-18,-19.08, -13.94, 71.04, 6.27, 3.76, 28.98, repro,
2006-08-19,-12.64, -17.33, 41.44, 5.57, 4.15, 27.02, repro,
2006-08-20,-6.95, -5.89, 19.99, 6.71, 4.35, 32.29, repro,
2006-08-21,-14.47, -11.85, 26.46, 7.29, 4.32, 35.51, repro,
2006-08-22,-19.06, -9.21, 65.48, 6.55, 3.83, 30.42, repro,
2006-08-23,-8.18, -14.06, 31.63, 5.87, 3.79, 28.01, repro,
2006-08-24,-2.95, -8.32, -9.68, 5.87, 4.08, 28.60, repro,
2006-08-25,-18.27, -13.96, 99.66, 5.55, 3.63, 24.82, repro,
2006-08-26,-9.95, -11.59, 19.72, 6.08, 3.97, 28.50, repro,
2006-08-27,-8.56, -10.81, 21.65, 8.27, 4.62, 38.95, repro,
2006-08-28,0.74, -8.48, -0.63, 5.87, 3.87, 26.18, repro,
2006-08-29,-7.27, -12.68, 13.45, 5.88, 3.79, 26.78, repro,
2006-08-30,-21.91, -9.40, 103.73, 5.72, 3.55, 26.78, repro,
2006-08-31,-8.55, -10.69, 41.79, 6.01, 3.41, 25.49, repro,
2006-09-01,-1.26, -15.70, 11.88, 6.31, 3.78, 27.62, repro,
2006-09-02,0.37, -10.29, 62.05, 6.15, 3.88, 26.77, repro,
2006-09-03,-3.75, -12.77, 42.03, 6.64, 4.09, 31.11, repro,
2006-09-04,-24.77, -17.33, 123.57, 6.88, 3.91, 31.60, repro,
2006-09-05,-18.67, -16.02, 57.72, 6.93, 4.14, 30.95, repro,
2006-09-06,-15.16, -20.52, 58.82, 7.56, 4.00, 34.02, repro,
2006-09-07,-5.82, -11.06, 44.35, 5.89, 3.75, 26.66, repro,
2006-09-08,-2.77, -9.16, 30.15, 7.91, 4.01, 34.41, repro,
2006-09-09,-17.16, -17.42, 72.91, 6.49, 4.31, 32.23, repro,
2006-09-10,-15.98, -6.95, 55.82, 5.74, 3.66, 28.57, repro,
2006-09-11,5.25, -8.03, -42.79, 6.34, 4.14, 30.57, repro,
2006-09-12,-2.69, -11.23, 15.69, 5.43, 3.32, 24.32, repro,
2006-09-13,-4.28, -10.44, 0.90, 6.82, 3.89, 31.74, repro,
2006-09-14,-17.17, -6.62, 67.63, 6.76, 4.63, 32.99, repro,
2006-09-15,-6.20, -6.12, 55.28, 6.70, 4.21, 31.64, repro,
2006-09-16,-14.46, -10.60, 27.31, 5.90, 3.77, 28.48, repro,
2006-09-17,-14.78, -10.50, 71.85, 6.91, 3.66, 30.62, repro,
2006-09-18,-17.75, -17.34, 61.60, 6.87, 4.52, 32.33, repro,
2006-09-19,-0.33, -8.51, -36.47, 6.77, 3.80, 31.72, repro,
2006-09-20,-14.86, -10.76, 66.40, 6.29, 3.71, 29.19, repro,
2006-09-21,-15.28, -13.98, 59.91, 6.98, 3.73, 32.22, repro,
2006-09-22,-2.02, -9.58, -1.61, 5.77, 3.55, 27.27, repro,
2006-09-23,-0.60, -4.34, -23.67, 6.06, 3.78, 28.73, repro,
2006-09-24,8.89, -14.05, -33.38, 7.91, 4.37, 36.52, repro,
2006-09-25,-14.11, -9.56, 64.16, 5.94, 3.55, 27.72, repro,
2006-09-26,-13.19, -8.13, 58.59, 5.97, 4.13, 31.12, repro,
2006-09-27,-13.14, -6.72, 58.42, 5.90, 3.73, 27.57, repro,
2006-09-28,-9.54, -11.83, 23.76, 6.75, 4.10, 34.34, repro,
2006-09-29,0.43, -7.26, -17.93, 8.20, 4.89, 40.93, repro,
2006-09-30,-5.21, -12.29, 15.66, 5.69, 3.48, 27.08, repro,
2006-10-01,-11.53, -11.22, 27.63, 5.94, 3.65, 27.55, repro,
2006-10-02,-13.96, -5.92, 57.97, 5.24, 3.32, 25.31, repro,
2006-10-03,-10.25, -4.12, 19.74, 6.22, 3.73, 29.46, repro,
2006-10-04,-11.08, -10.32, -1.43, 6.29, 3.99, 31.26, repro,
2006-10-05,-8.09, -13.86, 11.80, 5.41, 3.47, 25.56, repro,
2006-10-06,-15.33, -11.79, 54.60, 5.35, 3.50, 26.31, repro,
2006-10-07,-9.70, -7.14, 31.00, 5.53, 3.48, 25.23, repro,
2006-10-08,-13.79, -4.03, 40.02, 5.62, 3.17, 24.19, repro,
2006-10-09,-5.52, -11.26, 2.03, 5.75, 3.53, 26.82, repro,
2006-10-10,-3.76, -13.53, 21.75, 4.82, 3.27, 21.69, repro,
2006-10-11,-11.12, -16.49, 43.10, 6.19, 3.75, 30.50, repro,
2006-10-12,-13.04, -3.04, 25.25, 5.25, 3.49, 25.02, repro,
2006-10-13,1.33, -4.41, -30.45, 4.69, 3.12, 23.13, repro,
2006-10-14,-16.89, -12.47, 62.53, 5.67, 3.43, 28.05, repro,
2006-10-15,-6.02, -11.50, 21.33, 5.42, 3.35, 26.03, repro,
2006-10-16,-10.06, -14.80, 46.82, 4.73, 2.97, 22.47, repro,
2006-10-17,7.09, -7.97, -51.78, 5.54, 3.44, 27.59, repro,
2006-10-18,1.32, -4.35, 0.49, 5.92, 3.63, 29.13, repro,
2006-10-19,-7.09, -4.74, 1.55, 5.93, 3.56, 29.48, repro,
2006-10-20,-22.06, -8.50, 87.58, 5.70, 3.24, 27.27, repro,
2006-10-21,2.37, 10.78, -55.48, 8.97, 5.50, 39.57, repro,
2007-04-27,-9.38, -9.57, 10.70, 8.80, 4.98, 41.54, repro,
2007-04-28,1.61, -7.30, -19.14, 5.45, 3.50, 26.10, repro,
2007-04-29,-8.28, -9.65, 44.81, 5.40, 3.53, 25.82, repro,
2007-04-30,2.90, -11.91, -16.12, 5.75, 3.81, 27.71, repro,
2007-05-01,-2.04, -3.94, -2.71, 5.43, 3.88, 27.09, repro,
2007-05-02,-10.65, -4.00, 51.88, 5.80, 4.01, 30.47, repro,
2007-05-03,2.59, -4.00, -59.95, 5.52, 4.57, 26.69, repro,
2007-05-04,2.55, -8.79, -34.27, 4.87, 3.58, 23.64, repro,
2007-05-05,-2.78, -7.96, 2.13, 5.25, 3.39, 24.78, repro,
2007-05-06,-6.34, -11.37, 21.69, 4.72, 3.40, 22.27, repro,
2007-05-07,-11.61, -8.79, 35.05, 5.32, 3.96, 26.23, repro,
2007-05-08,-5.84, -6.43, 31.84, 5.43, 3.93, 26.93, repro,
2007-05-09,-8.60, -10.42, 42.44, 5.39, 3.67, 26.53, repro,
2007-05-10,5.94, -13.28, -27.65, 5.11, 5.08, 25.06, repro,
2007-05-11,-2.10, -15.73, 1.33, 5.99, 5.00, 30.60, repro,
2007-05-12,-13.55, -14.37, 48.19, 5.28, 3.48, 24.42, repro,
2007-05-13,-2.04, -11.35, -30.01, 6.60, 5.54, 33.06, repro,
2007-05-15,1.27, -3.38, -23.13, 6.79, 5.26, 35.09, repro,
2007-05-16,8.94, -6.17, -53.62, 6.69, 4.36, 34.86, repro,
2007-05-17,-9.22, -16.01, 5.08, 5.30, 3.64, 25.36, repro,
2007-05-18,-5.80, -8.14, 1.51, 5.16, 3.56, 24.98, repro,